Location: Demmingen
(48.6757°N, 10.4375°E)
Time: 01:43:35
(UTC+00:00)

Cosmos 1709 Rocket - Pass Details

Date: 23 May 2024
Orbit: 948 x 1000 km, 82.9° (Epoch: 13 June)

Event Time Altitude Azimuth Distance (km) Brightness Sun altitude
Exits shadow 01:49:42 16° 207° (SSW) 2,315 5.3 -12.6°
Maximum altitude 01:54:42 59° 283° (WNW) 1,142 4.2 -12.1°
Drops below altitude 10° 02:01:01 10° 3° (N) 2,781 7.3 -11.4°
Sets 02:03:38 0° 7° (N) 3,737 8.1 -11.1°
